OCN1GN LEIB-EDDF

Flight info

Callsign OCN1GN
Flight time 1h 51m
Altitude 36000
Route KABRE DCT ELTAN N853 LUMAS DCT MAXIR DCT LUSOL DCT BODRU DCT OKTET DCT IRMAR DCT KINES DCT VANAS DCT ESOKO DCT GODRA/N0440F370 DCT LADOL/N0437F360 T163 EMPAX EMPAX5B
Aircraft A320/M-SDE3FGHIRWY/LB1

Departure

Time 2026-05-06 09:34
Airport Ibiza Airport (LEIB)

Arrival

Time 2026-05-06 11:26
Airport Frankfurt Main Airport (EDDF)
Time Latitude Longitude Altitude Speed Heading
2026-05-06 09:08 38.87508 1.36796 10 ft 0 kts 17°
2026-05-06 09:29 38.87508 1.36804 8 ft 2 kts 86°
2026-05-06 09:29 38.87495 1.36813 10 ft 1 kts 175°
2026-05-06 09:29 38.87467 1.36801 10 ft 9 kts 199°
2026-05-06 09:30 38.87388 1.36807 9 ft 15 kts 153°
2026-05-06 09:30 38.87297 1.36857 8 ft 13 kts 187°
2026-05-06 09:30 38.87248 1.36774 9 ft 11 kts 242°
2026-05-06 09:30 38.87214 1.36691 8 ft 10 kts 243°
2026-05-06 09:31 38.87177 1.36597 8 ft 14 kts 243°
2026-05-06 09:31 38.87125 1.36471 8 ft 18 kts 242°
2026-05-06 09:31 38.87068 1.36332 8 ft 17 kts 242°
2026-05-06 09:31 38.87016 1.36208 8 ft 15 kts 242°
2026-05-06 09:32 38.86971 1.36099 8 ft 13 kts 242°
2026-05-06 09:32 38.86931 1.36003 9 ft 11 kts 242°
2026-05-06 09:32 38.86896 1.35916 8 ft 12 kts 242°
2026-05-06 09:32 38.86840 1.35822 8 ft 13 kts 195°
2026-05-06 09:33 38.86757 1.35859 6 ft 13 kts 152°
2026-05-06 09:33 38.86721 1.35946 6 ft 12 kts 79°
2026-05-06 09:33 38.86763 1.36051 5 ft 18 kts 62°
2026-05-06 09:33 38.86925 1.36443 5 ft 84 kts 62°
2026-05-06 09:34 38.87290 1.37324 10 ft 138 kts 62°
2026-05-06 09:34 38.87790 1.38554 283 ft 160 kts 63°
2026-05-06 09:34 38.88264 1.39838 966 ft 160 kts 69°
2026-05-06 09:34 38.88552 1.41238 1577 ft 168 kts 76°
2026-05-06 09:35 38.88816 1.42791 1837 ft 189 kts 76°
2026-05-06 09:35 38.89116 1.44518 2203 ft 204 kts 76°
2026-05-06 09:35 38.89431 1.46316 2859 ft 207 kts 76°
2026-05-06 09:35 38.89753 1.48129 3564 ft 211 kts 77°
2026-05-06 09:36 38.90085 1.49988 4193 ft 216 kts 77°
2026-05-06 09:36 38.90425 1.51896 4828 ft 222 kts 77°
2026-05-06 09:36 38.90752 1.53851 5474 ft 226 kts 84°
2026-05-06 09:36 38.90715 1.55899 5977 ft 238 kts 97°
2026-05-06 09:37 38.90513 1.58077 6434 ft 252 kts 97°
2026-05-06 09:37 38.90294 1.60367 6804 ft 272 kts 98°
2026-05-06 09:37 38.90058 1.62823 7407 ft 282 kts 98°
2026-05-06 09:37 38.89788 1.65342 8089 ft 288 kts 103°
2026-05-06 09:38 38.89139 1.67785 8805 ft 291 kts 117°
2026-05-06 09:38 38.88259 1.70145 9560 ft 296 kts 117°
2026-05-06 09:38 38.87375 1.72556 10188 ft 304 kts 117°
2026-05-06 09:38 38.86446 1.75109 10399 ft 327 kts 116°
2026-05-06 09:39 38.85453 1.77844 10647 ft 347 kts 116°
2026-05-06 09:39 38.84424 1.80688 11205 ft 354 kts 117°
2026-05-06 09:39 38.83382 1.83570 11866 ft 359 kts 117°
2026-05-06 09:39 38.82329 1.86492 12517 ft 363 kts 116°
2026-05-06 09:40 38.81540 1.89600 13135 ft 371 kts 103°
2026-05-06 09:40 38.81299 1.92921 13722 ft 379 kts 90°
2026-05-06 09:40 38.82587 1.99539 14832 ft 389 kts 66°
2026-05-06 09:41 38.83672 2.02728 15416 ft 392 kts 66°
2026-05-06 09:41 38.84759 2.05952 16015 ft 395 kts 67°
2026-05-06 09:41 38.85846 2.09199 16595 ft 398 kts 67°
2026-05-06 09:41 38.86935 2.12473 17170 ft 400 kts 68°
2026-05-06 09:42 38.88032 2.15775 17723 ft 404 kts 68°
2026-05-06 09:42 38.89143 2.19107 18257 ft 408 kts 68°
2026-05-06 09:42 38.90264 2.22468 18715 ft 411 kts 68°
2026-05-06 09:42 38.91394 2.25859 19165 ft 415 kts 67°
2026-05-06 09:43 38.92535 2.29281 19607 ft 419 kts 68°
2026-05-06 09:43 38.93685 2.32731 20044 ft 422 kts 67°
2026-05-06 09:43 38.94845 2.36217 20483 ft 426 kts 68°
2026-05-06 09:43 38.96008 2.39730 20910 ft 429 kts 68°
2026-05-06 09:44 38.97178 2.43267 21337 ft 432 kts 67°
2026-05-06 09:44 38.98360 2.46844 21758 ft 436 kts 67°
2026-05-06 09:44 38.99548 2.50440 22166 ft 439 kts 67°
2026-05-06 09:44 39.00749 2.54072 22574 ft 443 kts 67°
2026-05-06 09:45 39.01957 2.57724 22964 ft 446 kts 67°
2026-05-06 09:45 39.03172 2.61410 23359 ft 449 kts 67°
2026-05-06 09:45 39.04394 2.65132 23714 ft 453 kts 67°
2026-05-06 09:45 39.05621 2.68872 24043 ft 455 kts 67°
2026-05-06 09:46 39.06852 2.72626 24423 ft 456 kts 68°
2026-05-06 09:46 39.08085 2.76398 24765 ft 459 kts 68°
2026-05-06 09:46 39.09324 2.80191 25100 ft 461 kts 68°
2026-05-06 09:46 39.10571 2.84011 25393 ft 464 kts 68°
2026-05-06 09:47 39.11808 2.87804 25700 ft 467 kts 68°
2026-05-06 09:47 39.13083 2.91719 26029 ft 469 kts 68°
2026-05-06 09:47 39.14332 2.95554 26328 ft 472 kts 67°
2026-05-06 09:47 39.15687 2.99416 26649 ft 474 kts 65°
2026-05-06 09:48 39.17158 3.03236 26955 ft 477 kts 63°
2026-05-06 09:48 39.18705 3.07021 27266 ft 478 kts 62°
2026-05-06 09:48 39.20287 3.10802 27599 ft 480 kts 62°
2026-05-06 09:48 39.21868 3.14601 27907 ft 482 kts 62°
2026-05-06 09:49 39.23432 3.18436 28200 ft 484 kts 63°
2026-05-06 09:49 39.24976 3.22307 28506 ft 486 kts 63°
2026-05-06 09:49 39.26508 3.26210 28782 ft 489 kts 64°
2026-05-06 09:49 39.28037 3.30138 29059 ft 491 kts 64°
2026-05-06 09:50 39.29572 3.34085 29328 ft 493 kts 64°
2026-05-06 09:50 39.31115 3.38046 29602 ft 495 kts 64°
2026-05-06 09:50 39.32671 3.42028 29833 ft 498 kts 64°
2026-05-06 09:50 39.34237 3.46026 30066 ft 500 kts 64°
2026-05-06 09:51 39.35809 3.50045 30297 ft 502 kts 64°
2026-05-06 09:51 39.37382 3.54079 30499 ft 504 kts 64°
2026-05-06 09:51 39.38959 3.58120 30733 ft 505 kts 64°
2026-05-06 09:51 39.40539 3.62172 31050 ft 504 kts 64°
2026-05-06 09:52 39.42112 3.66209 31361 ft 503 kts 64°
2026-05-06 09:52 39.43682 3.70243 31680 ft 502 kts 64°
2026-05-06 09:52 39.45250 3.74279 31977 ft 501 kts 64°
2026-05-06 09:52 39.46793 3.78251 32278 ft 501 kts 63°
2026-05-06 09:53 39.48373 3.82330 32577 ft 500 kts 64°
2026-05-06 09:53 39.49905 3.86293 32888 ft 498 kts 64°
2026-05-06 09:53 39.51472 3.90356 33238 ft 498 kts 64°
2026-05-06 09:53 39.53016 3.94370 33527 ft 498 kts 64°
2026-05-06 09:54 39.54537 3.98333 33792 ft 498 kts 64°
2026-05-06 09:54 39.56095 4.02398 34070 ft 497 kts 64°
2026-05-06 09:54 39.57691 4.06367 34319 ft 497 kts 58°
2026-05-06 09:54 39.59711 4.09984 34526 ft 495 kts 47°
2026-05-06 09:55 39.62161 4.13097 34737 ft 492 kts 36°
2026-05-06 09:55 39.64915 4.15589 34944 ft 487 kts 25°
2026-05-06 09:55 39.67950 4.17464 35135 ft 481 kts 15°
2026-05-06 09:55 39.71149 4.18649 35339 ft 474 kts
2026-05-06 09:56 39.74397 4.19302 35530 ft 473 kts
2026-05-06 09:56 39.77656 4.19924 35663 ft 474 kts
2026-05-06 09:56 39.80916 4.20553 35841 ft 474 kts
2026-05-06 09:56 39.84176 4.21187 35957 ft 474 kts
2026-05-06 09:57 39.90688 4.22530 35972 ft 474 kts
2026-05-06 09:57 39.97187 4.24084 35985 ft 479 kts
2026-05-06 09:58 40.03800 4.25708 35979 ft 488 kts
2026-05-06 09:58 40.10534 4.27315 35983 ft 495 kts
2026-05-06 09:59 40.17333 4.28902 35983 ft 497 kts
2026-05-06 09:59 40.24154 4.30510 35986 ft 499 kts
2026-05-06 10:00 40.30986 4.32131 35990 ft 499 kts
2026-05-06 10:00 40.37821 4.33756 35994 ft 500 kts
2026-05-06 10:01 40.44666 4.35380 36009 ft 501 kts
2026-05-06 10:01 40.51531 4.37012 36000 ft 502 kts
2026-05-06 10:02 40.58402 4.38650 35997 ft 502 kts
2026-05-06 10:02 40.65281 4.40295 35998 ft 503 kts
2026-05-06 10:03 40.72168 4.41950 36000 ft 503 kts
2026-05-06 10:03 40.79004 4.43596 36001 ft 503 kts
2026-05-06 10:04 40.85892 4.45249 36012 ft 503 kts
2026-05-06 10:04 40.92784 4.46912 36003 ft 504 kts
2026-05-06 10:05 40.99680 4.48595 36000 ft 504 kts
2026-05-06 10:05 41.06581 4.50278 36028 ft 504 kts
2026-05-06 10:06 41.13486 4.51949 36011 ft 505 kts
2026-05-06 10:06 41.20398 4.53619 36001 ft 505 kts
2026-05-06 10:07 41.27314 4.55317 36015 ft 505 kts
2026-05-06 10:07 41.34231 4.57019 36009 ft 506 kts
2026-05-06 10:08 41.41149 4.58721 35983 ft 506 kts
2026-05-06 10:08 41.48079 4.60425 36013 ft 507 kts
2026-05-06 10:09 41.55021 4.62129 35999 ft 507 kts
2026-05-06 10:09 41.61964 4.63840 35993 ft 508 kts
2026-05-06 10:10 41.68910 4.65561 36024 ft 508 kts
2026-05-06 10:10 41.75658 4.68594 36005 ft 519 kts 24°
2026-05-06 10:11 41.81901 4.73539 35990 ft 522 kts 28°
2026-05-06 10:11 41.88131 4.78551 35988 ft 522 kts 28°
2026-05-06 10:12 41.94320 4.83539 36004 ft 522 kts 28°
2026-05-06 10:12 42.00548 4.88574 35995 ft 523 kts 28°
2026-05-06 10:13 42.06777 4.93615 35993 ft 523 kts 28°
2026-05-06 10:13 42.12000 4.97859 35991 ft 523 kts 28°
2026-05-06 10:14 42.19250 5.03759 35976 ft 524 kts 28°
2026-05-06 10:14 42.25495 5.08846 35973 ft 525 kts 28°
2026-05-06 10:15 42.30732 5.13119 35995 ft 525 kts 28°
2026-05-06 10:15 42.36973 5.18237 35990 ft 525 kts 28°
2026-05-06 10:16 42.43177 5.23334 35987 ft 525 kts 28°
2026-05-06 10:16 42.49452 5.28496 36013 ft 524 kts 28°
2026-05-06 10:17 42.55644 5.33599 35963 ft 524 kts 29°
2026-05-06 10:17 42.61867 5.38744 35953 ft 524 kts 29°
2026-05-06 10:18 42.68092 5.43913 35955 ft 524 kts 29°
2026-05-06 10:18 42.74316 5.49088 35952 ft 525 kts 29°
2026-05-06 10:19 42.80538 5.54274 35955 ft 525 kts 29°
2026-05-06 10:19 42.86769 5.59475 35957 ft 525 kts 29°
2026-05-06 10:20 42.92987 5.64687 35977 ft 525 kts 29°
2026-05-06 10:20 42.99200 5.69903 35963 ft 524 kts 29°
2026-05-06 10:21 43.05417 5.75116 35927 ft 524 kts 29°
2026-05-06 10:21 43.11637 5.80357 35945 ft 525 kts 29°
2026-05-06 10:22 43.17853 5.85608 35940 ft 525 kts 29°
2026-05-06 10:22 43.24067 5.90869 35936 ft 525 kts 29°
2026-05-06 10:23 43.30273 5.96145 35937 ft 525 kts 29°
2026-05-06 10:23 43.36529 6.01280 35931 ft 522 kts 22°
2026-05-06 10:24 43.43302 6.04290 35935 ft 511 kts
2026-05-06 10:24 43.50329 6.05131 35944 ft 507 kts 359°
2026-05-06 10:25 43.57364 6.05828 35932 ft 507 kts 359°
2026-05-06 10:25 43.64401 6.06540 35923 ft 507 kts 359°
2026-05-06 10:26 43.71442 6.07262 35935 ft 508 kts 359°
2026-05-06 10:26 43.78427 6.09002 35889 ft 516 kts 16°
2026-05-06 10:27 43.84982 6.13173 35888 ft 520 kts 24°
2026-05-06 10:27 43.91484 6.17611 35906 ft 521 kts 24°
2026-05-06 10:28 43.98000 6.22051 35907 ft 522 kts 24°
2026-05-06 10:28 44.04515 6.26502 35897 ft 522 kts 24°
2026-05-06 10:29 44.11026 6.30970 35922 ft 522 kts 24°
2026-05-06 10:29 44.17533 6.35454 35918 ft 522 kts 24°
2026-05-06 10:30 44.24039 6.39956 35905 ft 522 kts 24°
2026-05-06 10:30 44.30545 6.44462 35924 ft 522 kts 24°
2026-05-06 10:31 44.37047 6.48967 35884 ft 522 kts 24°
2026-05-06 10:31 44.43552 6.53481 35909 ft 522 kts 25°
2026-05-06 10:32 44.50010 6.57980 35906 ft 522 kts 25°
2026-05-06 10:32 44.56505 6.62521 35897 ft 521 kts 25°
2026-05-06 10:33 44.62985 6.67065 35899 ft 521 kts 25°
2026-05-06 10:33 44.69468 6.71620 35878 ft 521 kts 25°
2026-05-06 10:34 44.75966 6.76106 35866 ft 519 kts 20°
2026-05-06 10:34 44.82892 6.78534 35871 ft 510 kts
2026-05-06 10:35 44.89916 6.78393 35870 ft 504 kts 353°
2026-05-06 10:35 44.96933 6.77928 35849 ft 505 kts 353°
2026-05-06 10:36 45.03960 6.77468 35857 ft 506 kts 353°
2026-05-06 10:36 45.10989 6.76995 35856 ft 506 kts 353°
2026-05-06 10:37 45.18026 6.76522 35868 ft 506 kts 353°
2026-05-06 10:37 45.25026 6.76053 35881 ft 507 kts 353°
2026-05-06 10:38 45.32075 6.75588 35877 ft 507 kts 353°
2026-05-06 10:38 45.39132 6.75130 35888 ft 508 kts 354°
2026-05-06 10:39 45.46191 6.76258 35889 ft 517 kts 14°
2026-05-06 10:39 45.52748 6.80480 35889 ft 520 kts 29°
2026-05-06 10:40 45.59003 6.85670 35906 ft 521 kts 29°
2026-05-06 10:40 45.65256 6.90879 35895 ft 520 kts 30°
2026-05-06 10:41 45.71500 6.96087 35898 ft 519 kts 30°
2026-05-06 10:41 45.77700 7.01263 35913 ft 519 kts 30°
2026-05-06 10:42 45.83928 7.06480 35911 ft 518 kts 30°
2026-05-06 10:42 45.90137 7.11707 35865 ft 517 kts 30°
2026-05-06 10:43 45.96339 7.16954 35873 ft 518 kts 30°
2026-05-06 10:44 46.05644 7.24850 35889 ft 518 kts 30°
2026-05-06 10:44 46.11861 7.30121 35896 ft 518 kts 30°
2026-05-06 10:45 46.18064 7.35396 35897 ft 518 kts 30°
2026-05-06 10:45 46.24269 7.40693 35898 ft 518 kts 30°
2026-05-06 10:46 46.30472 7.46010 35893 ft 519 kts 30°
2026-05-06 10:46 46.36676 7.51337 35878 ft 518 kts 30°
2026-05-06 10:47 46.42871 7.56672 35861 ft 517 kts 30°
2026-05-06 10:47 46.49063 7.62018 35866 ft 518 kts 30°
2026-05-06 10:48 46.55249 7.67380 35865 ft 518 kts 31°
2026-05-06 10:48 46.61450 7.72705 35865 ft 518 kts 29°
2026-05-06 10:49 46.67806 7.77632 35865 ft 517 kts 26°
2026-05-06 10:49 46.74191 7.82334 35869 ft 517 kts 26°
2026-05-06 10:50 46.80577 7.87165 35867 ft 517 kts 27°
2026-05-06 10:50 46.86936 7.92099 35865 ft 518 kts 27°
2026-05-06 10:51 46.93333 7.97095 35873 ft 518 kts 27°
2026-05-06 10:51 46.99692 8.02043 35851 ft 518 kts 27°
2026-05-06 10:52 47.06058 8.06980 35846 ft 518 kts 27°
2026-05-06 10:52 47.12379 8.11903 35861 ft 518 kts 27°
2026-05-06 10:53 47.18735 8.16884 35859 ft 518 kts 27°
2026-05-06 10:53 47.25088 8.21874 35855 ft 517 kts 27°
2026-05-06 10:54 47.31439 8.26870 35862 ft 517 kts 28°
2026-05-06 10:54 47.37785 8.31887 35856 ft 517 kts 27°
2026-05-06 10:55 47.44131 8.36901 35843 ft 517 kts 27°
2026-05-06 10:55 47.50465 8.41921 35851 ft 517 kts 27°
2026-05-06 10:56 47.56801 8.46972 35851 ft 517 kts 27°
2026-05-06 10:56 47.63127 8.52023 35849 ft 517 kts 27°
2026-05-06 10:57 47.69454 8.57088 35860 ft 517 kts 27°
2026-05-06 10:57 47.75776 8.62158 35845 ft 516 kts 28°
2026-05-06 10:58 47.82088 8.67250 35838 ft 516 kts 28°
2026-05-06 10:58 47.88408 8.72353 35837 ft 516 kts 27°
2026-05-06 10:59 47.94722 8.77456 35840 ft 516 kts 27°
2026-05-06 10:59 48.01027 8.82558 35835 ft 515 kts 28°
2026-05-06 11:00 48.07318 8.87691 35835 ft 515 kts 28°
2026-05-06 11:00 48.13590 8.92763 35490 ft 516 kts 24°
2026-05-06 11:00 48.16916 8.94718 34842 ft 514 kts 14°
2026-05-06 11:01 48.20399 8.95880 34076 ft 512 kts
2026-05-06 11:01 48.23935 8.96399 33517 ft 510 kts
2026-05-06 11:01 48.27469 8.96908 32913 ft 510 kts
2026-05-06 11:01 48.31002 8.97439 32310 ft 510 kts
2026-05-06 11:02 48.34527 8.97984 31733 ft 508 kts
2026-05-06 11:02 48.38031 8.98536 31154 ft 506 kts
2026-05-06 11:02 48.41531 8.99089 30568 ft 505 kts
2026-05-06 11:02 48.45011 8.99631 30002 ft 503 kts
2026-05-06 11:03 48.48493 9.00167 29363 ft 502 kts
2026-05-06 11:03 48.51972 9.00698 28803 ft 503 kts
2026-05-06 11:03 48.55455 9.01228 28236 ft 503 kts
2026-05-06 11:03 48.58933 9.01758 27673 ft 503 kts
2026-05-06 11:04 48.62419 9.02290 27126 ft 503 kts
2026-05-06 11:04 48.65897 9.02909 26582 ft 504 kts
2026-05-06 11:04 48.69368 9.03672 26048 ft 502 kts
2026-05-06 11:04 48.72802 9.04529 25514 ft 498 kts
2026-05-06 11:05 48.76195 9.05423 24974 ft 493 kts 10°
2026-05-06 11:05 48.79562 9.06308 24431 ft 488 kts 10°
2026-05-06 11:05 48.81771 9.06876 24068 ft 485 kts
2026-05-06 11:05 48.85088 9.07705 23519 ft 480 kts
2026-05-06 11:06 48.88373 9.08492 22899 ft 476 kts
2026-05-06 11:06 48.91647 9.09132 22353 ft 473 kts
2026-05-06 11:06 48.94912 9.09619 21797 ft 470 kts
2026-05-06 11:06 48.98158 9.10016 21244 ft 467 kts
2026-05-06 11:07 49.01390 9.10382 20691 ft 464 kts
2026-05-06 11:07 49.04600 9.10760 20107 ft 461 kts
2026-05-06 11:07 49.07770 9.11168 19663 ft 452 kts
2026-05-06 11:07 49.10846 9.11598 19523 ft 435 kts
2026-05-06 11:08 49.13815 9.12035 19352 ft 421 kts
2026-05-06 11:08 49.16662 9.12456 19167 ft 400 kts
2026-05-06 11:08 49.19382 9.12855 18620 ft 387 kts
2026-05-06 11:08 49.22038 9.13242 17872 ft 381 kts
2026-05-06 11:09 49.24655 9.13619 17042 ft 376 kts
2026-05-06 11:09 49.27248 9.13990 16234 ft 371 kts
2026-05-06 11:09 49.29775 9.14642 15508 ft 368 kts 13°
2026-05-06 11:09 49.32263 9.15531 14984 ft 366 kts 12°
2026-05-06 11:10 49.34740 9.16409 14492 ft 364 kts 12°
2026-05-06 11:10 49.37202 9.17277 13994 ft 364 kts 12°
2026-05-06 11:10 49.39670 9.18146 13488 ft 365 kts 12°
2026-05-06 11:10 49.42140 9.19020 13098 ft 360 kts 12°
2026-05-06 11:11 49.44583 9.19888 12500 ft 362 kts 12°
2026-05-06 11:11 49.47010 9.20754 12239 ft 354 kts 12°
2026-05-06 11:11 49.49393 9.21605 11859 ft 350 kts 12°
2026-05-06 11:11 49.51758 9.22449 11446 ft 347 kts 12°
2026-05-06 11:12 49.54101 9.23284 11016 ft 345 kts 12°
2026-05-06 11:12 49.56432 9.24114 10622 ft 343 kts 12°
2026-05-06 11:12 49.58758 9.24941 10443 ft 343 kts 12°
2026-05-06 11:12 49.61082 9.25771 10312 ft 342 kts 12°
2026-05-06 11:13 49.63395 9.26599 10172 ft 341 kts 12°
2026-05-06 11:13 49.65703 9.27428 10037 ft 340 kts 12°
2026-05-06 11:13 49.67995 9.28251 9899 ft 334 kts 12°
2026-05-06 11:13 49.70221 9.29051 9765 ft 322 kts 12°
2026-05-06 11:14 49.72349 9.29818 9782 ft 309 kts 12°
2026-05-06 11:14 49.74434 9.30569 9788 ft 306 kts 11°
2026-05-06 11:14 49.76502 9.31312 9788 ft 305 kts 11°
2026-05-06 11:14 49.78574 9.32059 9787 ft 306 kts 12°
2026-05-06 11:15 49.80639 9.32824 9783 ft 305 kts 12°
2026-05-06 11:15 49.82705 9.33598 9791 ft 306 kts 12°
2026-05-06 11:15 49.84771 9.34371 9785 ft 305 kts 10°
2026-05-06 11:15 49.86863 9.34513 9782 ft 301 kts 349°
2026-05-06 11:16 49.88845 9.33687 9558 ft 298 kts 336°
2026-05-06 11:16 49.90784 9.32477 9198 ft 295 kts 334°
2026-05-06 11:16 49.92673 9.31251 8862 ft 293 kts 334°
2026-05-06 11:16 49.94542 9.30025 8520 ft 291 kts 334°
2026-05-06 11:17 49.96375 9.28823 8191 ft 289 kts 334°
2026-05-06 11:17 49.98220 9.27613 7859 ft 287 kts 334°
2026-05-06 11:17 50.00054 9.26407 7523 ft 285 kts 334°
2026-05-06 11:17 50.01879 9.25202 7230 ft 284 kts 334°
2026-05-06 11:18 50.03681 9.24006 6957 ft 283 kts 334°
2026-05-06 11:18 50.05499 9.22811 6685 ft 281 kts 334°
2026-05-06 11:18 50.07297 9.21627 6416 ft 280 kts 333°
2026-05-06 11:18 50.08915 9.20052 6157 ft 272 kts 310°
2026-05-06 11:19 50.09971 9.17665 5898 ft 267 kts 295°
2026-05-06 11:19 50.10845 9.15119 5641 ft 266 kts 294°
2026-05-06 11:19 50.11700 9.12571 5394 ft 265 kts 294°
2026-05-06 11:19 50.12557 9.10030 5135 ft 265 kts 294°
2026-05-06 11:20 50.13412 9.07490 4881 ft 264 kts 294°
2026-05-06 11:20 50.14060 9.04845 4631 ft 259 kts 278°
2026-05-06 11:20 50.14117 9.02072 4371 ft 255 kts 259°
2026-05-06 11:20 50.13629 8.99441 4119 ft 252 kts 249°
2026-05-06 11:21 50.13025 8.96873 3994 ft 253 kts 248°
2026-05-06 11:21 50.12422 8.94299 3996 ft 250 kts 248°
2026-05-06 11:21 50.11847 8.91842 3992 ft 233 kts 248°
2026-05-06 11:21 50.11305 8.89530 3997 ft 223 kts 248°
2026-05-06 11:22 50.10775 8.87275 4000 ft 223 kts 248°
2026-05-06 11:22 50.10240 8.85004 3859 ft 222 kts 248°
2026-05-06 11:22 50.09714 8.82768 3601 ft 220 kts 248°
2026-05-06 11:22 50.09188 8.80537 3317 ft 219 kts 248°
2026-05-06 11:23 50.08662 8.78308 3031 ft 220 kts 248°
2026-05-06 11:23 50.08127 8.76045 2730 ft 228 kts 248°
2026-05-06 11:23 50.07575 8.73706 2423 ft 230 kts 248°
2026-05-06 11:23 50.07039 8.71437 2119 ft 215 kts 248°
2026-05-06 11:24 50.06542 8.69337 1842 ft 199 kts 249°
2026-05-06 11:24 50.06079 8.67384 1584 ft 185 kts 248°
2026-05-06 11:24 50.05650 8.65577 1370 ft 172 kts 249°
2026-05-06 11:24 50.05258 8.63921 1122 ft 154 kts 248°
2026-05-06 11:25 50.04916 8.62469 906 ft 134 kts 248°
2026-05-06 11:25 50.04610 8.61160 718 ft 128 kts 249°
2026-05-06 11:25 50.04299 8.59849 561 ft 127 kts 249°
2026-05-06 11:25 50.03991 8.58580 410 ft 125 kts 248°
2026-05-06 11:26 50.03700 8.57396 359 ft 92 kts 248°
2026-05-06 11:26 50.03561 8.56810 357 ft 43 kts 250°
2026-05-06 11:26 50.03469 8.56411 353 ft 36 kts 252°
2026-05-06 11:26 50.03437 8.56143 357 ft 16 kts 271°
2026-05-06 11:27 50.03442 8.56012 349 ft 19 kts 279°
2026-05-06 11:27 50.03465 8.55793 350 ft 20 kts 279°
2026-05-06 11:27 50.03532 8.55709 351 ft 13 kts 21°
2026-05-06 11:27 50.03573 8.55809 351 ft 9 kts 68°
2026-05-06 11:28 50.03594 8.55892 357 ft 7 kts 69°
2026-05-06 11:28 50.03613 8.55976 356 ft 11 kts 70°
2026-05-06 11:28 50.03636 8.56070 360 ft 8 kts 69°
2026-05-06 11:28 50.03651 8.56134 357 ft 5 kts 70°
2026-05-06 11:29 50.03661 8.56177 353 ft 3 kts 70°
2026-05-06 11:29 50.03675 8.56235 357 ft 9 kts 70°
2026-05-06 11:29 50.03702 8.56347 357 ft 13 kts 70°
2026-05-06 11:29 50.03738 8.56505 359 ft 18 kts 70°
2026-05-06 11:30 50.03786 8.56702 357 ft 19 kts 69°
2026-05-06 11:30 50.03830 8.56882 362 ft 17 kts 70°
2026-05-06 11:30 50.03867 8.57038 360 ft 14 kts 69°
2026-05-06 11:30 50.03894 8.57154 358 ft 9 kts 70°
2026-05-06 11:31 50.03912 8.57231 364 ft 6 kts 69°
2026-05-06 11:31 50.03926 8.57287 364 ft 11 kts 69°
2026-05-06 11:31 50.03976 8.57496 366 ft 25 kts 70°
2026-05-06 11:31 50.04034 8.57740 368 ft 22 kts 69°
2026-05-06 11:32 50.04084 8.57947 372 ft 19 kts 69°
2026-05-06 11:32 50.04137 8.58121 369 ft 17 kts 45°
2026-05-06 11:32 50.04238 8.58202 366 ft 16 kts 15°
2026-05-06 11:32 50.04337 8.58173 367 ft 13 kts 338°
2026-05-06 11:33 50.04417 8.58123 367 ft 12 kts 338°
2026-05-06 11:33 50.04498 8.58075 367 ft 12 kts 341°
2026-05-06 11:33 50.04591 8.58027 360 ft 16 kts 340°
2026-05-06 11:33 50.04702 8.57964 364 ft 17 kts 339°
2026-05-06 11:34 50.04794 8.58019 362 ft 15 kts 65°
2026-05-06 11:34 50.04804 8.58136 359 ft 8 kts 136°
2026-05-06 11:34 50.04767 8.58162 361 ft 6 kts 159°
2026-05-06 11:34 50.04743 8.58176 364 ft 0 kts 160°